Location: North Evanston
(42.0634°N, 87.6976°W)
Time: 13:47:48
(UTC+00:00)

Vanguard 3 - Pass Details

Date: 18 May 2026
Orbit: 507 x 3204 km, 33.3° (Epoch: 6 June)

Event Time Altitude Azimuth Distance (km) Brightness Sun altitude
Rises 00:41:12 0° 280° (W) 7,108 14.0 3.5°
Reaches altitude 10° 00:46:56 10° 273° (W) 5,921 13.1 2.5°
Maximum altitude 01:01:07 32° 220° (SW) 3,577 10.6 0.1°
Drops below altitude 10° 01:11:03 10° 163° (SSE) 4,101 10.3 -1.5°
Sets 01:14:14 0° 152° (SSE) 4,731 10.5 -2.0°
